Location: Haliburton Scout Reserve
(45.0900°N, 78.3200°W)
Time: 00:34:32
(UTC-05:00)

Courier 1B Rocket - All Passes

Search period start: 06 February 2023 00:00
Search period end: 16 February 2023 00:00
Orbit: 920 x 1202 km, 28.2° (Epoch: 05 February)

Date Brightness Start Highest point End Pass type
(mag) Time Alt. Az. Time Alt. Az. Time Alt. Az.
06 Feb - 14:52:23 10° SSE 14:52:51 10° SSE 14:53:18 10° SSE daylight
06 Feb - 16:41:22 10° SSW 16:45:02 16° S 16:48:39 10° SE daylight
06 Feb - 18:34:05 10° SW 18:37:14 14° S 18:40:25 10° SSE visible
07 Feb - 15:40:54 10° SSW 15:44:20 15° S 15:47:43 10° SE daylight
07 Feb - 17:32:57 10° SW 17:36:34 16° S 17:40:09 10° SSE daylight
08 Feb - 14:40:42 10° SSW 14:43:39 13° SSE 14:46:30 10° SE daylight
08 Feb - 16:32:01 10° SW 16:35:53 17° S 16:39:40 10° SE daylight
08 Feb - 18:25:47 10° SW 18:28:03 12° SSW 18:30:19 10° S visible
09 Feb - 13:41:08 10° S 13:42:56 11° SSE 13:44:42 10° SSE daylight
09 Feb - 15:31:13 10° SW 15:35:10 17° S 15:39:00 10° SE daylight
09 Feb - 17:24:09 10° SW 17:27:23 14° S 17:30:36 10° SSE daylight
10 Feb - 14:30:36 10° SSW 14:34:26 16° S 14:38:10 10° SE daylight
10 Feb - 16:22:53 10° SW 16:26:42 16° S 16:30:26 10° SSE daylight
11 Feb - 13:30:13 10° SSW 13:33:42 14° SSE 13:37:04 10° SE daylight
11 Feb - 15:21:49 10° SW 15:25:59 17° S 15:30:02 10° SE daylight
11 Feb - 17:15:46 10° SW 17:18:11 12° SSW 17:20:35 10° S daylight
12 Feb - 12:30:17 10° S 12:32:56 12° SSE 12:35:32 10° SE daylight
12 Feb - 14:20:55 10° SW 14:25:15 18° S 14:29:25 10° SE daylight
12 Feb - 16:14:00 10° SW 16:17:30 15° SSW 16:20:56 10° SSE daylight
13 Feb - 13:20:10 10° SSW 13:24:28 17° S 13:28:37 10° SE daylight
13 Feb - 15:12:38 10° SW 15:16:48 17° S 15:20:50 10° SSE daylight
14 Feb - 12:19:38 10° SSW 12:23:40 16° SSE 12:27:33 10° SE daylight
14 Feb - 14:11:28 10° SW 14:16:02 19° S 14:20:26 10° SE daylight
14 Feb - 16:05:28 10° SW 16:08:17 13° SSW 16:11:00 10° S daylight
15 Feb - 11:19:30 10° S 11:22:51 14° SSE 11:26:06 10° SE daylight
15 Feb - 13:10:28 10° SW 13:15:14 19° S 13:19:49 10° SE daylight
15 Feb - 15:03:40 10° SW 15:07:34 16° SSW 15:11:21 10° SSE daylight
